Location: Krakow
(50.0830°N, 19.9170°E)
Time: 06:38:35
(UTC+01:00)

SR - Pass Details

Date: 15 February 2023
Orbit: 582 x 867 km, 66.7° (Epoch: 20 March)

Event Time Altitude Azimuth Distance (km) Brightness Sun altitude
Rises 20:57:13 0° 311° (NW) 2,828 ? -37.9°
Reaches altitude 10° 21:00:07 10° 290° (WNW) 1,909 ? -38.3°
Enters shadow 21:00:18 11° 288° (WNW) 1,863 ? -38.4°
Maximum altitude 21:02:49 17° 250° (WSW) 1,517 - -38.7°
Drops below altitude 10° 21:05:32 10° 211° (SSW) 1,907 - -39.1°
Sets 21:08:26 0° 190° (S) 2,824 - -39.5°
